[[{"header":{"parameterUnit":"m.s-1","parameterCategory":1,"la1":30.2991,"la2":30.254,"lo1":-89.0895,"lo2":-89.0444,"dy":0.0017,"dx":0.0017,"nx":28,"ny":28,"refTime":"2024-02-10T03:00:00:Z","depth":0,"parameterNumber":2,"parameterNumberName":"U-component_of_WINDS"},"data":[0,0,0,0,0,0,0,0,0,0,0,0,0,0,0,0,0,0,0,0,0,0,0,0,0,0,0,0,0,0,0,0,0,0,0,0,0,0,0,0,0,0,0,0,0,0,0,0,0,0,0,0,0,0,0,0,0,0,-2.4499,-2.45,0,-2.451,-2.451,-2.451,-2.447,-2.4469,-2.4468,-2.4467,-2.4478,-2.4479,-2.4481,0,0,0,0,0,0,0,0,0,0,0,0,0,-2.4447,-2.4448,-2.4499,-2.45,-2.45,-2.451,-2.451,-2.451,-2.447,-2.4469,-2.4468,-2.4466,-2.4478,-2.4479,-2.4481,0,0,0,0,0,0,0,0,0,0,0,0,0,-2.4464,-2.4448,-2.4499,-2.4481,-2.448,-2.4509,-2.451,-2.451,-2.4471,-2.4469,-2.4467,-2.4466,-2.4477,-2.4479,-2.4481,-2.4529,0,0,-2.4487,-2.4488,0,0,0,0,0,0,0,0,-2.4464,-2.4466,-2.4484,-2.4483,-2.4481,-2.4487,-2.4495,-2.4516,-2.4471,-2.4474,-2.4467,-2.4465,-2.4482,-2.4484,-2.449,-2.453,-2.453,-2.4488,-2.4489,-2.449,-2.449,0,0,0,0,0,0,0,-2.4462,-2.4466,-2.4503,-2.4484,-2.4482,-2.4473,-2.4473,-2.4499,-2.4488,-2.4474,-2.4471,-2.4473,-2.4481,-2.4488,-2.449,-2.453,-2.4488,-2.4489,-2.4491,-2.4492,-2.4609,-2.461,0,0,0,0,0,0,-2.4463,-2.4465,-2.4503,-2.4504,-2.4468,-2.4475,-2.4476,-2.4487,-2.4488,-2.4486,-2.4474,-2.4471,-2.4485,-2.4487,-2.449,-2.4544,-2.449,-2.4492,-2.4493,-2.4607,-2.4609,-2.4611,0,0,0,0,0,0,-2.4462,-2.4467,-2.4503,-2.4484,-2.4487,-2.4478,-2.449,-2.4488,-2.4494,-2.4488,-2.4486,-2.4483,-2.4484,-2.4487,-2.4519,-2.4544,-2.4493,-2.4495,-2.4605,-2.4607,-2.461,-2.4655,0,0,0,0,0,0,-2.4461,-2.4467,-2.4485,-2.4484,-2.4489,-2.4532,-2.4492,-2.4489,-2.4498,-2.4493,-2.4495,-2.4494,-2.4483,-2.4516,-2.4521,-2.4546,-2.4496,-2.4602,-2.4606,-2.4609,-2.4651,-2.4659,-2.4666,0,0,0,0,0,-2.4459,-2.4498,-2.4486,-2.4491,-2.4511,-2.4533,-2.4536,-2.4522,-2.45,-2.4518,-2.4514,-2.4494,-2.4541,-2.452,-2.4525,-2.4551,-2.4601,-2.4605,-2.4609,-2.4648,-2.4658,-2.4666,0,0,0,0,0,0,-2.4502,-2.4498,-2.4484,-2.4524,-2.4529,-2.4527,-2.4549,-2.4532,-2.4544,-2.454,-2.4522,-2.4523,-2.4558,-2.4558,-2.4534,-2.4597,-2.4567,-2.4573,-2.4595,-2.4604,-2.4611,-2.461,-2.4498,0,0,0,0,0,-2.4517,-2.4535,-2.453,-2.4565,-2.4569,-2.4558,-2.4568,-2.4556,-2.4561,-2.4563,-2.4562,-2.4567,-2.4583,-2.4594,-2.4609,-2.4652,-2.4651,-2.4673,-2.468,-2.4686,-2.469,-2.4711,-2.472,-2.4625,-2.4625,-2.4625,0,0,-2.4546,-2.4545,-2.4558,-2.4574,-2.4577,-2.4596,-2.4561,-2.4583,-2.4597,-2.4567,-2.4596,-2.4596,-2.4601,-2.4638,-2.4655,-2.464,-2.4717,-2.4691,-2.4696,-2.4697,-2.4717,-2.4726,-2.4734,-2.4628,-2.4627,-2.4627,0,0,-2.4608,-2.4611,-2.4639,-2.4643,-2.4647,-2.464,-2.4647,-2.4647,-2.4645,-2.4675,-2.4652,-2.4669,-2.4697,-2.4701,-2.4707,-2.4771,-2.4753,-2.4777,-2.4814,-2.4835,-2.4842,-2.4849,-2.487,-2.4878,-2.4782,-2.4782,-2.4782,0,-2.4644,-2.4672,-2.4656,-2.4679,-2.4687,-2.4661,-2.4689,-2.4694,-2.4703,-2.4708,-2.4691,-2.4726,-2.4728,-2.4765,-2.478,-2.4787,-2.4793,-2.4776,-2.4843,-2.4849,-2.4855,-2.4875,-2.4883,-2.4785,-2.4784,-2.4784,-2.4784,0,-2.4714,-2.4734,-2.4757,-2.4765,-2.4776,-2.4802,-2.479,-2.4802,-2.479,-2.4785,-2.4815,-2.4817,-2.483,-2.4839,-2.4828,-2.4874,-2.4864,-2.4846,-2.4815,-2.4867,-2.4885,-2.4893,-2.4788,-2.4787,-2.4787,-2.4786,0,0,-2.4803,-2.4803,-2.4811,-2.4814,-2.4817,-2.4832,-2.4857,-2.487,-2.488,-2.4888,-2.4907,-2.4932,-2.4914,-2.4921,-2.491,-2.4929,-2.4977,-2.4907,-2.4907,-2.4918,-2.5026,-2.5039,-2.5048,-2.4966,-2.4967,-2.4968,-2.5025,0,-2.4862,-2.4904,-2.4891,-2.4933,-2.495,-2.4925,-2.4947,-2.4951,-2.4947,-2.4961,-2.4957,-2.4974,-2.495,-2.4954,-2.4972,-2.4967,-2.4998,-2.4964,-2.4983,-2.4983,-2.498,-2.5058,-2.5071,-2.5124,-2.5032,-2.5034,-2.5035,0,-2.4937,-2.4946,-2.499,-2.4989,-2.4996,-2.5015,-2.5025,-2.504,-2.5044,-2.5039,-2.5047,-2.5032,-2.5056,-2.5027,-2.5059,-2.5036,-2.5043,-2.5043,-2.5044,-2.5044,-2.501,-2.5057,-2.5141,-2.5149,-2.5046,-2.5045,-2.5044,0,-2.4995,-2.5019,-2.5047,-2.5051,-2.5051,-2.5065,-2.5066,-2.5068,-2.5077,-2.5086,-2.5091,-2.5104,-2.511,-2.512,-2.5109,-2.5089,-2.5142,-2.5112,-2.5138,-2.5138,-2.5148,-2.5148,-2.5233,-2.5157,-2.5157,-2.5157,-2.5157,0,-2.5061,-2.5088,-2.5072,-2.509,-2.5119,-2.5104,-2.5134,-2.5132,-2.5135,-2.5151,-2.5132,-2.5148,-2.5133,-2.5148,-2.514,-2.5166,-2.517,-2.5167,-2.5164,-2.5167,-2.5167,-2.517,-2.5165,-2.5159,-2.5159,-2.5158,-2.5158,0,-2.5129,-2.512,-2.5149,-2.5147,-2.5147,-2.5169,-2.5167,-2.5183,-2.5177,-2.5198,-2.5202,-2.5194,-2.521,-2.5201,-2.5218,-2.5212,-2.5246,-2.524,-2.5245,-2.5242,-2.5267,-2.5264,-2.5355,-2.5366,-2.5286,-2.5287,-2.5287,0,-2.5171,-2.5191,-2.5191,-2.52,-2.5202,-2.5217,-2.5225,-2.5212,-2.5221,-2.5227,-2.5242,-2.5257,-2.5267,-2.5294,-2.5289,-2.5302,-2.5294,-2.5325,-2.5295,-2.5298,-2.5291,-2.5289,-2.529,-2.533,-2.5331,-2.5332,-2.5333,0,-2.5245,-2.524,-2.5252,-2.5262,-2.5272,-2.528,-2.5287,-2.5295,-2.5282,-2.5293,-2.5309,-2.5317,-2.5334,-2.5348,-2.5358,-2.5359,-2.5343,-2.5342,-2.5348,-2.5351,-2.5352,-2.5349,-2.5258,-2.534,-2.5339,-2.5338,-2.5338,-2.5338,-2.53,-2.5316,-2.5318,-2.5332,-2.5335,-2.5341,-2.5355,-2.5352,-2.5365,-2.5376,-2.5368,-2.5387,-2.539,-2.5402,-2.5405,-2.5419,-2.5406,-2.5416,-2.5418,-2.542,-2.5422,-2.5352,-2.5421,-2.5421,-2.5421,-2.5421,-2.5421,0,-2.5371,-2.5371,-2.5385,-2.5393,-2.5404,-2.5389,-2.5395,-2.5405,-2.5421,-2.5425,-2.5436,-2.5454,-2.5467,-2.5464,-2.5476,-2.5488,-2.548,-2.5491,-2.5489,-2.5489,-2.5434,-2.5426,-2.5496,-2.5496,-2.5496,-2.5496,-2.5496,-2.5496,-2.541,-2.5435,-2.543,-2.5457,-2.5457,-2.5474,-2.5478,-2.5484,-2.5487,-2.5507,-2.5518,-2.5516,-2.5517,-2.5529,-2.554,-2.5539,-2.5543,-2.5556,-2.5552,-2.55,-2.5493,-2.5486,-2.5478,-2.5558,-2.5558,-2.5605,-2.5605,-2.5606]},{"header":{"parameterUnit":"m.s-1","parameterCategory":1,"la1":30.2991,"la2":30.254,"lo1":-89.0895,"lo2":-89.0444,"dy":0.0017,"dx":0.0017,"nx":28,"ny":28,"refTime":"2024-02-10T03:00:00:Z","depth":0,"parameterNumber":3,"parameterNumberName":"V-component_of_WINDS"},"data":[0,0,0,0,0,0,0,0,0,0,0,0,0,0,0,0,0,0,0,0,0,0,0,0,0,0,0,0,0,0,0,0,0,0,0,0,0,0,0,0,0,0,0,0,0,0,0,0,0,0,0,0,0,0,0,0,0,0,1.8754,1.8755,0,1.8848,1.8849,1.885,1.8869,1.8869,1.8868,1.8867,1.8962,1.8965,1.8968,0,0,0,0,0,0,0,0,0,0,0,0,0,1.8591,1.8593,1.8754,1.8755,1.8756,1.8848,1.8849,1.8851,1.8869,1.8868,1.8868,1.8867,1.8961,1.8965,1.8969,0,0,0,0,0,0,0,0,0,0,0,0,0,1.8671,1.8594,1.8754,1.8777,1.878,1.8848,1.8849,1.8851,1.887,1.8868,1.8867,1.8866,1.896,1.8965,1.8969,1.9021,0,0,1.8984,1.8986,0,0,0,0,0,0,0,0,1.8666,1.8677,1.8772,1.8775,1.8779,1.8846,1.8827,1.8908,1.887,1.8835,1.8867,1.8866,1.8924,1.8932,1.8952,1.9025,1.9029,1.8984,1.8987,1.8989,1.8991,0,0,0,0,0,0,0,1.8661,1.8673,1.8791,1.8774,1.8778,1.8782,1.8793,1.8842,1.8885,1.8838,1.884,1.8851,1.8926,1.8947,1.8954,1.9031,1.8984,1.8989,1.8992,1.8993,1.9153,1.9155,0,0,0,0,0,0,1.8651,1.8668,1.8788,1.8794,1.8719,1.8786,1.8798,1.8825,1.8884,1.8892,1.8852,1.8851,1.894,1.8949,1.8958,1.9024,1.8989,1.8994,1.8997,1.9152,1.9154,1.9155,0,0,0,0,0,0,1.8647,1.8662,1.8784,1.8732,1.8748,1.879,1.8821,1.8828,1.8849,1.8894,1.8902,1.8866,1.8939,1.8951,1.9006,1.9027,1.8996,1.9,1.915,1.9152,1.9154,1.9155,0,0,0,0,0,0,1.8643,1.866,1.868,1.8732,1.875,1.8831,1.8822,1.883,1.8858,1.8858,1.891,1.8917,1.8939,1.8998,1.901,1.9034,1.9004,1.9149,1.9151,1.9154,1.9154,1.9157,1.916,0,0,0,0,0,1.8637,1.8676,1.8681,1.8695,1.8776,1.8832,1.8842,1.8867,1.8859,1.888,1.8909,1.8915,1.9023,1.9004,1.9017,1.9042,1.9147,1.9151,1.9154,1.9152,1.9156,1.916,0,0,0,0,0,0,1.8624,1.8683,1.8689,1.8746,1.8784,1.8835,1.8862,1.8871,1.8911,1.891,1.8939,1.895,1.9004,1.9028,1.9006,1.9096,1.9085,1.9091,1.9079,1.9083,1.9087,1.908,1.9008,0,0,0,0,0,1.8628,1.8669,1.8717,1.8763,1.8782,1.8818,1.8843,1.886,1.89,1.8916,1.8949,1.8988,1.9031,1.9058,1.9099,1.9157,1.9169,1.9181,1.9184,1.9186,1.9192,1.9226,1.9233,1.9165,1.9165,1.9165,0,0,1.8636,1.8673,1.8697,1.8761,1.8793,1.8835,1.8832,1.8875,1.8907,1.8922,1.8977,1.9003,1.9048,1.9105,1.9131,1.9127,1.9213,1.919,1.9192,1.9196,1.923,1.9237,1.9242,1.9167,1.9167,1.9167,0,0,1.8674,1.8705,1.8747,1.8779,1.8827,1.8852,1.8862,1.8912,1.893,1.8985,1.8998,1.9036,1.9108,1.9141,1.9167,1.9218,1.9226,1.9231,1.9249,1.9282,1.9288,1.9292,1.9313,1.932,1.9236,1.9236,1.9236,0,1.8678,1.8742,1.8768,1.8812,1.8841,1.8857,1.8901,1.8931,1.8989,1.9009,1.9003,1.9096,1.9127,1.9193,1.9206,1.9226,1.9239,1.9226,1.9285,1.929,1.9295,1.9315,1.9322,1.9236,1.9236,1.9236,1.9236,0,1.8746,1.879,1.8819,1.8877,1.8908,1.8952,1.8985,1.9014,1.9028,1.9053,1.911,1.9148,1.9199,1.9216,1.9228,1.9284,1.928,1.9279,1.9268,1.9301,1.9321,1.9328,1.9237,1.9236,1.9236,1.9236,0,0,1.8778,1.8851,1.8861,1.8889,1.8943,1.8978,1.9023,1.9074,1.9099,1.9139,1.9178,1.924,1.924,1.927,1.9287,1.9316,1.9357,1.9311,1.9313,1.932,1.9423,1.9425,1.9433,1.9362,1.9363,1.9365,1.942,0,1.8823,1.8905,1.8931,1.8999,1.9041,1.9058,1.9098,1.9136,1.9161,1.9201,1.9228,1.9272,1.9268,1.9286,1.9315,1.9346,1.9378,1.9342,1.94,1.9402,1.939,1.9443,1.9445,1.9496,1.9428,1.9429,1.943,0,1.8887,1.893,1.9003,1.9055,1.9074,1.9109,1.9158,1.9196,1.924,1.9256,1.929,1.9305,1.9353,1.9339,1.9407,1.9382,1.9407,1.9426,1.9428,1.9436,1.9419,1.9454,1.9512,1.952,1.9441,1.944,1.944,0,1.8907,1.8982,1.9036,1.9059,1.912,1.9144,1.9171,1.9214,1.9243,1.9286,1.9306,1.9354,1.938,1.9417,1.9445,1.9432,1.9512,1.9499,1.9528,1.9527,1.9545,1.9544,1.961,1.9558,1.9558,1.9558,1.9558,0,1.8956,1.9,1.9046,1.908,1.9131,1.9159,1.9209,1.9236,1.9275,1.9314,1.9331,1.9368,1.9401,1.9443,1.9465,1.9519,1.953,1.9546,1.9552,1.9546,1.9544,1.9564,1.9562,1.956,1.9559,1.9559,1.9559,0,1.8986,1.9018,1.9079,1.9132,1.9147,1.9182,1.9228,1.9261,1.9287,1.9337,1.9351,1.9391,1.9441,1.9473,1.9535,1.955,1.9611,1.9614,1.9596,1.9599,1.9628,1.9625,1.971,1.9724,1.9661,1.9661,1.9662,0,1.9017,1.9052,1.9109,1.9137,1.9164,1.9209,1.924,1.927,1.9301,1.9355,1.9383,1.9434,1.9476,1.9555,1.9591,1.964,1.9646,1.9672,1.9653,1.9647,1.9649,1.9647,1.9652,1.9675,1.9676,1.9676,1.9677,0,1.9068,1.9083,1.9127,1.9177,1.9213,1.9254,1.9294,1.9316,1.9353,1.9388,1.944,1.9473,1.9538,1.959,1.9642,1.9669,1.968,1.9682,1.9692,1.9687,1.9677,1.9685,1.9607,1.9681,1.968,1.968,1.968,1.9679,1.9102,1.9134,1.9181,1.923,1.9263,1.9301,1.9336,1.9367,1.9411,1.9467,1.9482,1.9537,1.9582,1.9653,1.9682,1.9725,1.9722,1.9735,1.9739,1.9742,1.9744,1.9668,1.9734,1.9734,1.9734,1.9734,1.9734,0,1.9156,1.9187,1.9232,1.9289,1.9328,1.9334,1.938,1.9412,1.946,1.9501,1.9543,1.9604,1.9654,1.9694,1.9746,1.9773,1.978,1.9786,1.9785,1.9792,1.9743,1.9731,1.978,1.978,1.978,1.978,1.978,1.978,1.9189,1.9246,1.9266,1.9341,1.9371,1.9426,1.9452,1.9487,1.952,1.9588,1.963,1.9655,1.9697,1.9752,1.9798,1.9809,1.9828,1.9834,1.9846,1.98,1.9795,1.979,1.9779,1.9837,1.9837,1.9891,1.9892,1.9892]}]]